sat.trackr.live / text

‹ back to catalog

STARLINK-2150

NORAD 47739 · 2021-017T

PAYLOAD ACTIVE UNKNOWN

§ Identity

Operator
Country
US
Launch date
2021-03-04
Launch site
AFETR
Launch vehicle
Mass (kg)
RCS (m²)

Purposes: comms

External: N2YO · Heavens-Above · Gunter

§ Orbital elements

Epoch: 2026-05-25T04:31:19.354080Z

Period
94.01 min
Inclination
53.1584°
Eccentricity
0.0001308
Mean motion
15.31703375 rev/d
Perigee alt
469.8 km
Apogee alt
471.6 km
Semi-major
6,848.9 km
B*
3.7513e-5
RAAN
223.4092°
Arg perigee
84.2134°
Mean anomaly
275.9016°
Rev number
28,940

§ Raw data

STARLINK-21501 47739U 21017T   26145.18841845  .00000799  00000+0  37513-4 0  99952 47739  53.1584 223.4092 0001308  84.2134 275.9016 15.31703375289402

JSON: /api/v1/satellites/47739 · /tle

For live sub-satellite position, see the globe view (requires WebGL).

§ Visibility from observer

Set your observer location to see the next 7 days of passes ≥ 10°. The values pass through the URL so the page stays shareable.

No JS? Fill the form by hand. The geolocation button needs JavaScript.